Flag for Australia Weather past 2 weeks in The Settlement, Christmas Island, Australia

Now
72 °F

Sprinkles. Mostly cloudy.


Feels Like: 67 °F
Forecast: 74 / 78 °F
Wind: 14 mph from Southeast

Location: Christmas Island Aerodrome

Current Time: Jul 24, 2014 at 4:11:11 AM

Latest Report: Jul 24, 2014 at 3:00 AM


Visibility: 5 mi

Pressure: 29.95 "Hg

Humidity: 94%

Dew point: 70 °F

Location of The SettlementLocation

Historic Weather in The Settlement — Graph

°F

The Settlement temperature yesterday

Maximum temperature yesterday: 77 °F (at 10:00 AM)
Minimum temperature yesterday: 72 °F (at 7:00 PM)
Average temperature yesterday: 75 °F

Past Weeks' High & Low Weather Summary

 TemperatureHumidityPressure
High79 °F (Jul 9, 1:00 PM)100% (Jul 18, 7:00 AM)30.01 "Hg (Jul 18, 7:00 AM)
Low72 °F (Jul 13, 11:00 PM)54% (Jul 15, 12:00 PM)29.83 "Hg (Jul 10, 4:00 PM)
Average76 °F79%29.94 "Hg
* Reported Jul 9 3:00 AM — Jul 24 3:00 AM, The Settlement, Weather by CustomWeather, © 2014

Note: Actual official high and low records may vary slightly from our data, if they occured in-between our weather recording intervals... More about our weather records

Advertising

The Settlement weather history for previous 24 hours

 ConditionsComfort  
Time TempWeatherWind HumidityBarometerVisibility
3:00 AM
Jul 24
72 °FSprinkles. Mostly cloudy.14 mph94%29.95 "Hg5 mi
2:00 AM72 °FSprinkles. Overcast.14 mph94%29.95 "Hg4 mi
1:00 AM73 °FSprinkles. Overcast.15 mph94%29.98 "Hg6 mi
12:00 AM73 °FMostly cloudy.17 mph89%29.98 "HgN/A
11:00 PM
Jul 23
75 °FOvercast.15 mph83%30.01 "HgN/A
10:30 PM75 °FOvercast.16 mph83%30.01 "HgN/A
10:00 PM75 °FMostly cloudy.17 mph83%29.98 "HgN/A
9:00 PM73 °FMostly cloudy.17 mph89%30.01 "HgN/A
8:02 PM73 °FSprinkles. Overcast.15 mph89%29.98 "HgN/A
7:00 PM72 °FLight rain. Overcast.14 mph94%29.98 "Hg6 mi
6:00 PM73 °FMostly cloudy.17 mph89%29.95 "HgN/A
5:00 PM75 °FMostly cloudy.16 mph83%29.95 "HgN/A
4:00 PM75 °FMostly cloudy.17 mph83%29.95 "HgN/A
3:00 PM75 °FMostly cloudy.17 mph89%29.95 "HgN/A
1:00 PM75 °FCloudy.18 mph83%29.98 "HgN/A
12:00 PM77 °FMostly cloudy.18 mph79%29.98 "HgN/A
11:00 AM77 °FMostly cloudy.16 mph79%30.01 "HgN/A
10:00 AM77 °FCloudy.16 mph79%30.01 "HgN/A
9:00 AM75 °FBroken clouds.18 mph78%30.01 "HgN/A
8:00 AM75 °FBroken clouds.17 mph78%30.01 "HgN/A
6:02 AM73 °FMostly cloudy.18 mph83%29.95 "HgN/A
Weather by CustomWeather, © 2014

See weather overviewHow to use our weather pages